CJT9356 CYMX-CYQT

Flight info

Callsign CJT9356
Flight time 1h 51m
Altitude 340000
Route CYMX/11 N0452F340 DCT KESKA DCT BIPKO DCT IPSAK DCT OMEGI DCT RADEN DCT YXZ DCT VIVUR DCT AVIIT DCT BEROB DCT CYQT/25
Aircraft A306/M-SDE3GILORVW/S

Departure

Time 2026-04-18 20:31
Airport Montreal Mirabel International Airport (CYMX)

Arrival

Time 2026-04-18 22:22
Airport Thunder Bay International Airport (CYQT)
Time Latitude Longitude Altitude Speed Heading
2026-04-18 20:25 45.67346 -74.03332 279 ft 10 kts 66°
2026-04-18 20:25 45.67368 -74.03247 279 ft 9 kts 72°
2026-04-18 20:25 45.67390 -74.03168 279 ft 8 kts 66°
2026-04-18 20:26 45.67413 -74.03096 279 ft 8 kts 66°
2026-04-18 20:26 45.67433 -74.03027 279 ft 7 kts 67°
2026-04-18 20:26 45.67452 -74.02963 279 ft 7 kts 68°
2026-04-18 20:26 45.67469 -74.02902 279 ft 6 kts 70°
2026-04-18 20:27 45.67482 -74.02843 279 ft 6 kts 73°
2026-04-18 20:27 45.67493 -74.02785 279 ft 6 kts 74°
2026-04-18 20:27 45.67506 -74.02730 279 ft 6 kts 70°
2026-04-18 20:27 45.67522 -74.02677 283 ft 6 kts 66°
2026-04-18 20:28 45.67533 -74.02625 278 ft 5 kts 83°
2026-04-18 20:28 45.67528 -74.02593 278 ft 5 kts 112°
2026-04-18 20:28 45.67508 -74.02570 278 ft 3 kts 156°
2026-04-18 20:28 45.67489 -74.02560 278 ft 3 kts 160°
2026-04-18 20:29 45.67474 -74.02552 278 ft 2 kts 156°
2026-04-18 20:29 45.67460 -74.02543 281 ft 3 kts 159°
2026-04-18 20:29 45.67413 -74.02518 279 ft 11 kts 155°
2026-04-18 20:29 45.67320 -74.02448 279 ft 18 kts 160°
2026-04-18 20:30 45.67191 -74.02350 279 ft 22 kts 140°
2026-04-18 20:30 45.67082 -74.02203 281 ft 20 kts 117°
2026-04-18 20:30 45.67175 -74.01983 277 ft 53 kts 47°
2026-04-18 20:30 45.67632 -74.01297 273 ft 135 kts 45°
2026-04-18 20:31 45.68467 -74.00124 507 ft 193 kts 47°
2026-04-18 20:31 45.69444 -73.98680 1438 ft 207 kts 57°
2026-04-18 20:31 45.70462 -73.97063 2167 ft 237 kts 52°
2026-04-18 20:31 45.72032 -73.95817 2677 ft 282 kts 15°
2026-04-18 20:32 45.74017 -73.95988 3401 ft 299 kts 338°
2026-04-18 20:32 45.75653 -73.97662 4587 ft 275 kts 299°
2026-04-18 20:32 45.76271 -74.00020 5910 ft 246 kts 266°
2026-04-18 20:32 45.75843 -74.02266 7010 ft 234 kts 233°
2026-04-18 20:33 45.74559 -74.03678 7986 ft 239 kts 205°
2026-04-18 20:33 45.72934 -74.04335 8995 ft 247 kts 195°
2026-04-18 20:33 45.71212 -74.04701 9953 ft 253 kts 192°
2026-04-18 20:33 45.69436 -74.05116 10577 ft 266 kts 197°
2026-04-18 20:34 45.67631 -74.06027 10947 ft 285 kts 207°
2026-04-18 20:34 45.65892 -74.07569 11299 ft 304 kts 217°
2026-04-18 20:34 45.64261 -74.09629 11607 ft 322 kts 224°
2026-04-18 20:34 45.62836 -74.12165 12103 ft 336 kts 239°
2026-04-18 20:35 45.62222 -74.15433 12745 ft 351 kts 262°
2026-04-18 20:35 45.62594 -74.18946 13495 ft 368 kts 283°
2026-04-18 20:35 45.63881 -74.22151 14338 ft 378 kts 299°
2026-04-18 20:35 45.65572 -74.25025 14984 ft 386 kts 305°
2026-04-18 20:36 45.67417 -74.27859 15632 ft 389 kts 306°
2026-04-18 20:36 45.69239 -74.30734 16269 ft 390 kts 304°
2026-04-18 20:36 45.70867 -74.33818 16881 ft 386 kts 295°
2026-04-18 20:36 45.72025 -74.37255 17505 ft 380 kts 284°
2026-04-18 20:37 45.72663 -74.40854 18122 ft 377 kts 276°
2026-04-18 20:37 45.73066 -74.44546 18611 ft 379 kts 273°
2026-04-18 20:37 45.73356 -74.48368 19046 ft 383 kts 271°
2026-04-18 20:37 45.73585 -74.52147 19474 ft 387 kts 270°
2026-04-18 20:38 45.73802 -74.55988 20017 ft 388 kts 270°
2026-04-18 20:38 45.74031 -74.59875 20484 ft 392 kts 271°
2026-04-18 20:38 45.74272 -74.63773 20912 ft 395 kts 271°
2026-04-18 20:38 45.74527 -74.67700 21339 ft 399 kts 271°
2026-04-18 20:39 45.74791 -74.71668 21740 ft 402 kts 271°
2026-04-18 20:39 45.75063 -74.75675 22130 ft 406 kts 271°
2026-04-18 20:39 45.75340 -74.79713 22528 ft 409 kts 271°
2026-04-18 20:39 45.75629 -74.83783 22948 ft 413 kts 272°
2026-04-18 20:40 45.76113 -74.87868 23315 ft 419 kts 276°
2026-04-18 20:40 45.76687 -74.91967 23679 ft 422 kts 277°
2026-04-18 20:40 45.77294 -74.96041 24004 ft 424 kts 277°
2026-04-18 20:40 45.77933 -75.00182 24338 ft 427 kts 277°
2026-04-18 20:41 45.78583 -75.04351 24659 ft 429 kts 277°
2026-04-18 20:41 45.79230 -75.08512 24969 ft 431 kts 277°
2026-04-18 20:41 45.79880 -75.12730 25283 ft 433 kts 277°
2026-04-18 20:41 45.80527 -75.16952 25604 ft 435 kts 277°
2026-04-18 20:42 45.81176 -75.21205 25939 ft 436 kts 277°
2026-04-18 20:42 45.81823 -75.25474 26260 ft 439 kts 277°
2026-04-18 20:42 45.82467 -75.29750 26616 ft 441 kts 277°
2026-04-18 20:42 45.83113 -75.34051 26934 ft 442 kts 277°
2026-04-18 20:43 45.83762 -75.38374 27202 ft 444 kts 276°
2026-04-18 20:43 45.84404 -75.42665 27439 ft 446 kts 276°
2026-04-18 20:43 45.85063 -75.47075 27698 ft 447 kts 276°
2026-04-18 20:43 45.85715 -75.51446 27957 ft 449 kts 276°
2026-04-18 20:44 45.86358 -75.55769 28305 ft 448 kts 276°
2026-04-18 20:44 45.87007 -75.60136 28666 ft 447 kts 276°
2026-04-18 20:44 45.87649 -75.64480 29053 ft 446 kts 276°
2026-04-18 20:44 45.88290 -75.68835 29503 ft 443 kts 275°
2026-04-18 20:45 45.88922 -75.73138 30029 ft 438 kts 275°
2026-04-18 20:45 45.89550 -75.77418 30363 ft 437 kts 275°
2026-04-18 20:45 45.90174 -75.81690 30634 ft 437 kts 275°
2026-04-18 20:45 45.90793 -75.85970 30886 ft 437 kts 275°
2026-04-18 20:46 45.91410 -75.90243 31241 ft 436 kts 275°
2026-04-18 20:46 45.92025 -75.94485 31625 ft 434 kts 275°
2026-04-18 20:46 45.92639 -75.98725 31968 ft 432 kts 275°
2026-04-18 20:46 45.93404 -76.02914 32287 ft 438 kts 281°
2026-04-18 20:47 45.94440 -76.07044 32688 ft 438 kts 282°
2026-04-18 20:47 45.95516 -76.11083 33129 ft 435 kts 283°
2026-04-18 20:47 45.96621 -76.15110 33497 ft 434 kts 283°
2026-04-18 20:47 45.97743 -76.19147 33689 ft 434 kts 283°
2026-04-18 20:48 45.98854 -76.23114 33701 ft 419 kts 283°
2026-04-18 20:48 45.99928 -76.26941 33700 ft 407 kts 283°
2026-04-18 20:48 46.01997 -76.34431 33705 ft 402 kts 282°
2026-04-18 20:49 46.04035 -76.41920 33723 ft 401 kts 282°
2026-04-18 20:49 46.06057 -76.49378 33703 ft 402 kts 282°
2026-04-18 20:50 46.08096 -76.56887 33703 ft 402 kts 282°
2026-04-18 20:50 46.10132 -76.64397 33702 ft 402 kts 282°
2026-04-18 20:51 46.12164 -76.71916 33698 ft 402 kts 282°
2026-04-18 20:51 46.14141 -76.79258 33701 ft 403 kts 282°
2026-04-18 20:52 46.14612 -76.81016 33698 ft 405 kts 282°
2026-04-18 20:53 46.15370 -76.83857 33698 ft 409 kts 282°
2026-04-18 20:53 46.17448 -76.91659 33702 ft 422 kts 282°
2026-04-18 20:54 46.19575 -76.99603 33691 ft 425 kts 282°
2026-04-18 20:54 46.21704 -77.07561 33692 ft 424 kts 282°
2026-04-18 20:55 46.23822 -77.15525 33705 ft 424 kts 281°
2026-04-18 20:55 46.25909 -77.23402 33683 ft 421 kts 281°
2026-04-18 20:56 46.27994 -77.31327 33678 ft 422 kts 280°
2026-04-18 20:56 46.30071 -77.39253 33681 ft 422 kts 280°
2026-04-18 20:57 46.32152 -77.47207 33671 ft 422 kts 280°
2026-04-18 20:57 46.34224 -77.55154 33673 ft 422 kts 280°
2026-04-18 20:58 46.36275 -77.63044 33666 ft 421 kts 280°
2026-04-18 20:58 46.38335 -77.70997 33667 ft 421 kts 280°
2026-04-18 20:59 46.40384 -77.78950 33667 ft 421 kts 280°
2026-04-18 20:59 46.42434 -77.86918 33700 ft 421 kts 279°
2026-04-18 21:00 46.44459 -77.94802 33665 ft 419 kts 279°
2026-04-18 21:00 46.46483 -78.02719 33661 ft 418 kts 279°
2026-04-18 21:01 46.48498 -78.10638 33663 ft 418 kts 279°
2026-04-18 21:01 46.50504 -78.18557 33656 ft 418 kts 279°
2026-04-18 21:02 46.53513 -78.30470 33654 ft 422 kts 278°
2026-04-18 21:03 46.55510 -78.38384 33641 ft 414 kts 278°
2026-04-18 21:03 46.57472 -78.46165 33642 ft 408 kts 278°
2026-04-18 21:04 46.59404 -78.53925 33644 ft 407 kts 278°
2026-04-18 21:04 46.61328 -78.61697 33733 ft 408 kts 277°
2026-04-18 21:05 46.63253 -78.69463 33644 ft 409 kts 277°
2026-04-18 21:05 46.65175 -78.77238 33640 ft 410 kts 277°
2026-04-18 21:06 46.67104 -78.85059 33641 ft 410 kts 277°
2026-04-18 21:06 46.69022 -78.92868 33633 ft 410 kts 277°
2026-04-18 21:07 46.70933 -79.00682 33660 ft 410 kts 276°
2026-04-18 21:07 46.72840 -79.08499 33624 ft 409 kts 276°
2026-04-18 21:08 46.74728 -79.16272 33632 ft 409 kts 276°
2026-04-18 21:08 46.76623 -79.24099 33622 ft 409 kts 276°
2026-04-18 21:09 46.78511 -79.31922 33623 ft 409 kts 276°
2026-04-18 21:09 46.80396 -79.39764 33628 ft 409 kts 275°
2026-04-18 21:10 46.82275 -79.47614 33615 ft 410 kts 275°
2026-04-18 21:10 46.84157 -79.55497 33614 ft 410 kts 275°
2026-04-18 21:11 46.86030 -79.63364 33619 ft 410 kts 275°
2026-04-18 21:11 46.87885 -79.71185 33618 ft 410 kts 275°
2026-04-18 21:12 46.89748 -79.79072 33632 ft 409 kts 275°
2026-04-18 21:12 46.91599 -79.86933 33615 ft 408 kts 275°
2026-04-18 21:13 46.93442 -79.94801 33622 ft 408 kts 275°
2026-04-18 21:13 46.95268 -80.02617 33636 ft 408 kts 275°
2026-04-18 21:14 46.97103 -80.10509 33621 ft 410 kts 275°
2026-04-18 21:14 46.98934 -80.18401 33612 ft 408 kts 275°
2026-04-18 21:15 47.00753 -80.26258 33619 ft 407 kts 275°
2026-04-18 21:15 47.02562 -80.34119 33619 ft 407 kts 275°
2026-04-18 21:16 47.04366 -80.41990 33618 ft 406 kts 275°
2026-04-18 21:16 47.05861 -80.48530 33622 ft 406 kts 275°
2026-04-18 21:17 47.07945 -80.57668 33618 ft 405 kts 275°
2026-04-18 21:17 47.09434 -80.64228 33617 ft 404 kts 275°
2026-04-18 21:18 47.11197 -80.72016 33619 ft 404 kts 275°
2026-04-18 21:18 47.12974 -80.79892 33628 ft 404 kts 275°
2026-04-18 21:19 47.14723 -80.87690 33629 ft 404 kts 275°
2026-04-18 21:19 47.16473 -80.95518 33627 ft 401 kts 275°
2026-04-18 21:20 47.18204 -81.03277 33649 ft 399 kts 275°
2026-04-18 21:20 47.19926 -81.11048 33638 ft 399 kts 275°
2026-04-18 21:21 47.21637 -81.18802 33635 ft 399 kts 275°
2026-04-18 21:21 47.23349 -81.26559 33645 ft 398 kts 275°
2026-04-18 21:22 47.25059 -81.34330 33668 ft 398 kts 275°
2026-04-18 21:22 47.26755 -81.42074 33649 ft 398 kts 275°
2026-04-18 21:23 47.28442 -81.49813 33654 ft 399 kts 275°
2026-04-18 21:23 47.30132 -81.57608 33651 ft 400 kts 274°
2026-04-18 21:24 47.31820 -81.65408 33653 ft 400 kts 274°
2026-04-18 21:24 47.33503 -81.73206 33660 ft 398 kts 274°
2026-04-18 21:25 47.35173 -81.80972 33654 ft 397 kts 274°
2026-04-18 21:25 47.36835 -81.88745 33662 ft 396 kts 274°
2026-04-18 21:26 47.38487 -81.96500 33664 ft 396 kts 274°
2026-04-18 21:26 47.40136 -82.04268 33675 ft 396 kts 274°
2026-04-18 21:27 47.41777 -82.12029 33675 ft 395 kts 274°
2026-04-18 21:27 47.43410 -82.19768 33681 ft 394 kts 274°
2026-04-18 21:28 47.45021 -82.27444 33685 ft 394 kts 274°
2026-04-18 21:28 47.46638 -82.35183 33687 ft 394 kts 274°
2026-04-18 21:29 47.48240 -82.42887 33685 ft 394 kts 274°
2026-04-18 21:29 47.49847 -82.50631 33728 ft 393 kts 274°
2026-04-18 21:30 47.51446 -82.58355 33697 ft 392 kts 274°
2026-04-18 21:30 47.53033 -82.66065 33701 ft 392 kts 274°
2026-04-18 21:31 47.54614 -82.73779 33701 ft 391 kts 274°
2026-04-18 21:31 47.56190 -82.81500 33710 ft 391 kts 274°
2026-04-18 21:32 47.57764 -82.89230 33762 ft 391 kts 274°
2026-04-18 21:32 47.59329 -82.96943 33725 ft 392 kts 274°
2026-04-18 21:33 47.60883 -83.04654 33714 ft 393 kts 274°
2026-04-18 21:33 47.62442 -83.12408 33724 ft 393 kts 274°
2026-04-18 21:34 47.64000 -83.20171 33727 ft 393 kts 274°
2026-04-18 21:34 47.65550 -83.27941 33798 ft 392 kts 274°
2026-04-18 21:35 47.67098 -83.35721 33736 ft 393 kts 274°
2026-04-18 21:35 47.68628 -83.43449 33731 ft 392 kts 274°
2026-04-18 21:36 47.70162 -83.51229 33739 ft 392 kts 274°
2026-04-18 21:36 47.71690 -83.59020 33731 ft 392 kts 274°
2026-04-18 21:37 47.73214 -83.66813 33735 ft 392 kts 274°
2026-04-18 21:37 47.74724 -83.74563 33744 ft 393 kts 274°
2026-04-18 21:38 47.76238 -83.82373 33751 ft 394 kts 274°
2026-04-18 21:38 47.77754 -83.90212 33749 ft 394 kts 274°
2026-04-18 21:39 47.79263 -83.98046 33755 ft 394 kts 274°
2026-04-18 21:39 47.80765 -84.05887 33755 ft 394 kts 274°
2026-04-18 21:40 47.82252 -84.13682 33764 ft 395 kts 275°
2026-04-18 21:40 47.83745 -84.21549 33757 ft 396 kts 275°
2026-04-18 21:41 47.85240 -84.29442 33759 ft 396 kts 275°
2026-04-18 21:41 47.86728 -84.37331 33758 ft 396 kts 274°
2026-04-18 21:42 47.88210 -84.45233 33759 ft 396 kts 274°
2026-04-18 21:42 47.89686 -84.53140 33757 ft 397 kts 275°
2026-04-18 21:43 47.91158 -84.61053 33728 ft 398 kts 275°
2026-04-18 21:43 47.92645 -84.69066 33734 ft 398 kts 275°
2026-04-18 21:44 47.94109 -84.76998 33736 ft 398 kts 275°
2026-04-18 21:44 47.95349 -84.84979 33725 ft 392 kts 270°
2026-04-18 21:45 47.96281 -84.92977 33774 ft 391 kts 270°
2026-04-18 21:45 47.97190 -85.00991 33740 ft 392 kts 270°
2026-04-18 21:46 47.98089 -85.09016 33752 ft 392 kts 270°
2026-04-18 21:46 47.98982 -85.17033 33763 ft 392 kts 270°
2026-04-18 21:47 47.99864 -85.25020 33777 ft 392 kts 270°
2026-04-18 21:47 48.00747 -85.33057 33785 ft 392 kts 270°
2026-04-18 21:48 48.01622 -85.41082 33785 ft 392 kts 270°
2026-04-18 21:48 48.02492 -85.49117 33792 ft 392 kts 270°
2026-04-18 21:49 48.03357 -85.57154 33791 ft 392 kts 270°
2026-04-18 21:49 48.04216 -85.65194 33789 ft 392 kts 270°
2026-04-18 21:50 48.05069 -85.73233 33800 ft 391 kts 270°
2026-04-18 21:50 48.05915 -85.81277 33798 ft 392 kts 270°
2026-04-18 21:51 48.06761 -85.89347 33794 ft 393 kts 270°
2026-04-18 21:51 48.07600 -85.97480 33799 ft 404 kts 270°
2026-04-18 21:52 48.08473 -86.05964 33803 ft 416 kts 270°
2026-04-18 21:52 48.09352 -86.14533 33803 ft 421 kts 271°
2026-04-18 21:53 48.10235 -86.23155 33796 ft 413 kts 271°
2026-04-18 21:53 48.10665 -86.27337 33798 ft 400 kts 271°
2026-04-18 21:53 48.11078 -86.31425 33802 ft 395 kts 270°
2026-04-18 21:54 48.11887 -86.39553 33806 ft 394 kts 270°
2026-04-18 21:54 48.12689 -86.47662 33806 ft 394 kts 270°
2026-04-18 21:55 48.13483 -86.55727 33807 ft 394 kts 270°
2026-04-18 21:55 48.14277 -86.63856 33817 ft 394 kts 271°
2026-04-18 21:56 48.15067 -86.71986 33813 ft 395 kts 271°
2026-04-18 21:56 48.15853 -86.80126 33583 ft 393 kts 271°
2026-04-18 21:56 48.16241 -86.84178 32783 ft 394 kts 271°
2026-04-18 21:57 48.16629 -86.88253 31945 ft 397 kts 271°
2026-04-18 21:57 48.17018 -86.92357 31120 ft 399 kts 270°
2026-04-18 21:57 48.17409 -86.96486 30341 ft 400 kts 270°
2026-04-18 21:57 48.17793 -87.00551 29516 ft 400 kts 270°
2026-04-18 21:58 48.18182 -87.04680 28578 ft 401 kts 271°
2026-04-18 21:58 48.18569 -87.08819 27595 ft 401 kts 272°
2026-04-18 21:58 48.18955 -87.12964 26607 ft 402 kts 272°
2026-04-18 21:58 48.19342 -87.17138 25530 ft 404 kts 272°
2026-04-18 21:59 48.19728 -87.21311 24544 ft 404 kts 272°
2026-04-18 21:59 48.20112 -87.25452 23797 ft 398 kts 272°
2026-04-18 21:59 48.20489 -87.29544 22998 ft 392 kts 273°
2026-04-18 21:59 48.20859 -87.33575 22120 ft 386 kts 273°
2026-04-18 22:00 48.21216 -87.37488 21289 ft 380 kts 273°
2026-04-18 22:00 48.21570 -87.41385 20474 ft 375 kts 273°
2026-04-18 22:00 48.21918 -87.45241 19736 ft 369 kts 274°
2026-04-18 22:00 48.22258 -87.49015 19037 ft 362 kts 274°
2026-04-18 22:01 48.22591 -87.52742 18305 ft 358 kts 274°
2026-04-18 22:01 48.22919 -87.56420 17519 ft 353 kts 274°
2026-04-18 22:01 48.23242 -87.60047 16758 ft 348 kts 274°
2026-04-18 22:01 48.23559 -87.63632 16006 ft 343 kts 274°
2026-04-18 22:02 48.23866 -87.67102 15426 ft 335 kts 274°
2026-04-18 22:02 48.24070 -87.69406 15218 ft 325 kts 274°
2026-04-18 22:02 48.24456 -87.73766 14847 ft 306 kts 274°
2026-04-18 22:02 48.24729 -87.76894 14435 ft 298 kts 274°
2026-04-18 22:03 48.24990 -87.79896 13938 ft 293 kts 274°
2026-04-18 22:03 48.25254 -87.82955 13374 ft 290 kts 274°
2026-04-18 22:03 48.25508 -87.85903 12792 ft 286 kts 274°
2026-04-18 22:03 48.25759 -87.88849 12226 ft 282 kts 275°
2026-04-18 22:04 48.25925 -87.90778 11862 ft 279 kts 276°
2026-04-18 22:04 48.26254 -87.94611 11119 ft 275 kts 276°
2026-04-18 22:04 48.26415 -87.96488 10747 ft 272 kts 276°
2026-04-18 22:04 48.26654 -87.99286 10215 ft 269 kts 276°
2026-04-18 22:05 48.26889 -88.02055 9675 ft 266 kts 276°
2026-04-18 22:05 48.27122 -88.04798 9028 ft 264 kts 276°
2026-04-18 22:05 48.27354 -88.07532 8421 ft 262 kts 277°
2026-04-18 22:05 48.27578 -88.10182 8143 ft 249 kts 277°
2026-04-18 22:06 48.27791 -88.12701 7944 ft 237 kts 277°
2026-04-18 22:06 48.27992 -88.15097 7740 ft 226 kts 277°
2026-04-18 22:06 48.28185 -88.17399 7449 ft 220 kts 277°
2026-04-18 22:06 48.28375 -88.19678 7048 ft 219 kts 277°
2026-04-18 22:07 48.28561 -88.21912 6634 ft 218 kts 277°
2026-04-18 22:07 48.28749 -88.24173 6252 ft 217 kts 277°
2026-04-18 22:07 48.28935 -88.26418 5849 ft 217 kts 277°
2026-04-18 22:07 48.29121 -88.28663 5419 ft 217 kts 277°
2026-04-18 22:08 48.29308 -88.30917 5059 ft 216 kts 277°
2026-04-18 22:08 48.29492 -88.33163 5002 ft 217 kts 277°
2026-04-18 22:08 48.29678 -88.35418 5000 ft 218 kts 277°
2026-04-18 22:08 48.29863 -88.37680 4995 ft 218 kts 277°
2026-04-18 22:09 48.30048 -88.39931 4991 ft 218 kts 277°
2026-04-18 22:09 48.30232 -88.42193 4988 ft 218 kts 277°
2026-04-18 22:09 48.30417 -88.44460 4991 ft 218 kts 277°
2026-04-18 22:09 48.30600 -88.46713 4989 ft 218 kts 277°
2026-04-18 22:10 48.30780 -88.48949 4989 ft 218 kts 277°
2026-04-18 22:10 48.30963 -88.51204 4994 ft 218 kts 277°
2026-04-18 22:10 48.31145 -88.53463 4994 ft 218 kts 277°
2026-04-18 22:10 48.31326 -88.55721 4994 ft 218 kts 277°
2026-04-18 22:11 48.31507 -88.57976 4991 ft 218 kts 277°
2026-04-18 22:11 48.31688 -88.60243 4990 ft 218 kts 277°
2026-04-18 22:11 48.31868 -88.62498 4991 ft 218 kts 277°
2026-04-18 22:11 48.32048 -88.64759 4984 ft 218 kts 277°
2026-04-18 22:12 48.32406 -88.69277 4984 ft 218 kts 277°
2026-04-18 22:12 48.32585 -88.71537 4985 ft 218 kts 277°
2026-04-18 22:12 48.32762 -88.73784 4984 ft 216 kts 277°
2026-04-18 22:13 48.32938 -88.76029 4992 ft 216 kts 277°
2026-04-18 22:13 48.33114 -88.78271 4983 ft 216 kts 277°
2026-04-18 22:13 48.33290 -88.80519 4979 ft 216 kts 277°
2026-04-18 22:13 48.33463 -88.82756 4981 ft 216 kts 277°
2026-04-18 22:14 48.33637 -88.84993 4981 ft 215 kts 277°
2026-04-18 22:14 48.33809 -88.87202 4979 ft 215 kts 277°
2026-04-18 22:14 48.33986 -88.89445 4986 ft 216 kts 277°
2026-04-18 22:14 48.34160 -88.91693 4984 ft 217 kts 277°
2026-04-18 22:15 48.34616 -88.93834 4979 ft 218 kts 299°
2026-04-18 22:15 48.35573 -88.95529 4976 ft 206 kts 309°
2026-04-18 22:15 48.36559 -88.97007 4963 ft 192 kts 310°
2026-04-18 22:15 48.37480 -88.98359 4889 ft 182 kts 310°
2026-04-18 22:16 48.38373 -88.99656 4569 ft 177 kts 310°
2026-04-18 22:16 48.39264 -89.00951 4048 ft 179 kts 310°
2026-04-18 22:16 48.40164 -89.02271 3554 ft 180 kts 310°
2026-04-18 22:16 48.41001 -89.03649 3139 ft 174 kts 300°
2026-04-18 22:17 48.41515 -89.05216 2954 ft 160 kts 285°
2026-04-18 22:17 48.41734 -89.06759 2706 ft 146 kts 278°
2026-04-18 22:17 48.41888 -89.08234 2318 ft 141 kts 278°
2026-04-18 22:17 48.42035 -89.09679 2008 ft 140 kts 278°
2026-04-18 22:18 48.42184 -89.11134 1977 ft 141 kts 278°
2026-04-18 22:18 48.42310 -89.12602 1973 ft 141 kts 270°
2026-04-18 22:18 48.41921 -89.13948 1970 ft 147 kts 236°
2026-04-18 22:18 48.41149 -89.15017 1986 ft 152 kts 229°
2026-04-18 22:19 48.40442 -89.16139 1985 ft 143 kts 239°
2026-04-18 22:19 48.39907 -89.17360 1987 ft 137 kts 249°
2026-04-18 22:19 48.39610 -89.18700 1979 ft 133 kts 262°
2026-04-18 22:19 48.39523 -89.20055 1973 ft 129 kts 271°
2026-04-18 22:20 48.39542 -89.21423 1995 ft 137 kts 274°
2026-04-18 22:20 48.39565 -89.22771 1905 ft 121 kts 267°
2026-04-18 22:20 48.39345 -89.23924 1698 ft 113 kts 252°
2026-04-18 22:20 48.39018 -89.25007 1604 ft 120 kts 252°
2026-04-18 22:21 48.38669 -89.26242 1508 ft 133 kts 251°
2026-04-18 22:21 48.38315 -89.27565 1284 ft 137 kts 254°
2026-04-18 22:21 48.38018 -89.28913 1007 ft 130 kts 257°
2026-04-18 22:21 48.37748 -89.30117 742 ft 114 kts 258°
2026-04-18 22:22 48.37535 -89.31132 664 ft 90 kts 253°
2026-04-18 22:22 48.37358 -89.31864 656 ft 62 kts 251°
2026-04-18 22:22 48.37257 -89.32306 657 ft 29 kts 254°
2026-04-18 22:22 48.37205 -89.32534 659 ft 11 kts 244°
2026-04-18 22:23 48.37154 -89.32538 657 ft 8 kts 136°
2026-04-18 22:23 48.37122 -89.32478 657 ft 7 kts 128°
2026-04-18 22:23 48.37099 -89.32414 661 ft 7 kts 112°
2026-04-18 22:23 48.37094 -89.32349 658 ft 5 kts 72°
2026-04-18 22:24 48.37108 -89.32292 659 ft 8 kts 73°
2026-04-18 22:24 48.37133 -89.32170 657 ft 17 kts 71°
2026-04-18 22:24 48.37170 -89.32002 657 ft 17 kts 71°
2026-04-18 22:24 48.37207 -89.31843 658 ft 16 kts 70°
2026-04-18 22:25 48.37243 -89.31696 658 ft 15 kts 71°
2026-04-18 22:25 48.37275 -89.31554 659 ft 14 kts 71°
2026-04-18 22:25 48.37307 -89.31420 659 ft 13 kts 69°
2026-04-18 22:25 48.37335 -89.31305 660 ft 11 kts 66°
2026-04-18 22:26 48.37352 -89.31218 660 ft 7 kts 98°
2026-04-18 22:26 48.37339 -89.31180 659 ft 0 kts 126°
2026-04-18 22:26 48.37338 -89.31177 659 ft 1 kts 125°
2026-04-18 22:26 48.37335 -89.31170 660 ft 1 kts 123°
2026-04-18 22:27 48.37331 -89.31161 660 ft 1 kts 121°
2026-04-18 22:27 48.37331 -89.31160 660 ft 0 kts 121°